Weather History for KLND - June, 2012

Change the Weather History Date:

Wednesday, June 27, 2012

  Actual Average Record
Temperature  
Mean Temperature 71 °F 67 °F  
Max Temperature 90 °F 82 °F 96 °F (2013)
Min Temperature 51 °F 52 °F 39 °F (1969)
Degree Days  
Heating Degree Days 0 2  
Month to date heating degree days 45 121  
Since 1 June heating degree days 45 121  
Since 1 July heating degree days 6807 7743  
Cooling Degree Days 6 4  
Month to date cooling degree days 115 53  
Year to date cooling degree days 124 58  
Since 1 June cooling degree days 115 53  
Growing Degree Days 22 (Base 50)    
Moisture  
Dew Point 21 °F    
Average Humidity 21    
Maximum Humidity 35    
Minimum Humidity 6    
Precipitation  
Precipitation 0.00 in 0.02 in 0.74 in (1927)
Month to date precipitation 0.04 1.20  
Year to date precipitation 4.57 7.42  
Snow  
Snow 0.00 in 0.00 in - ()
Month to date snowfall 0.0 0.1  
Since 1 June snowfall 0.0 0.1  
Since 1 July snowfall 63.9 91.4  
Snow Depth 0.00 in    
Sea Level Pressure  
Sea Level Pressure 29.80 in    
Wind  
Wind Speed 9 mph (SW)    
Max Wind Speed 28 mph    
Max Gust Speed 46 mph    
Visibility 7 miles    
Events      
T = Trace of Precipitation, MM = Missing Value Source: NWS Daily Summary

Daily Weather History Graph

Daily Weather History Graph

Search for Another Location

Airport or City:

Trip Planner

Search our weather history database for the weather conditions in past years. The results will help you decide how hot, cold, wet, or windy it might be!

Date:

Astronomy

Jun. 27, 2012 Rise Set
Actual Time 5:38 AM MDT 8:57 PM MDT
Civil Twilight 5:03 AM MDT 9:32 PM MDT
Nautical Twilight 4:17 AM MDT 10:18 PM MDT
Astronomical Twilight 3:21 AM MDT 11:13 PM MDT
Moon 2:19 PM MDT (6/27) 12:46 AM MDT (6/27)
Length of Visible Light 16h 29m
Length of Day
15h 18m
First Quarter, 57% of the Moon is Illuminated
Jun 27
First Quarter
Jul 3
Full
Jul 10
Last Quarter
Jul 18
New
Jul 26
First Quarter

Hourly Weather History & Observations

Time (MDT) Temp. Dew Point Humidity Pressure Visibility Wind Dir Wind Speed Gust Speed Precip Events Conditions
12:53 AM 64.9 °F 21.9 °F 19% 29.66 in 10.0 mi North 5.8 mph - N/A   Clear
1:53 AM 63.0 °F 23.0 °F 22% 29.68 in 8.0 mi West 5.8 mph - N/A   Clear
2:53 AM 61.0 °F 23.0 °F 23% 29.70 in 8.0 mi Variable 6.9 mph - N/A   Clear
3:53 AM 59.0 °F 24.1 °F 26% 29.71 in 8.0 mi SE 5.8 mph - N/A   Clear
4:53 AM 55.9 °F 25.0 °F 30% 29.75 in 8.0 mi Calm Calm - N/A   Clear
5:53 AM 59.0 °F 24.1 °F 26% 29.76 in 8.0 mi SSE 4.6 mph - N/A   Partly Cloudy
6:53 AM 54.0 °F 27.0 °F 35% 29.81 in 9.0 mi SSE 4.6 mph - N/A   Clear
7:53 AM 60.1 °F 30.9 °F 33% 29.82 in 9.0 mi Calm Calm - N/A   Clear
8:53 AM 69.1 °F 26.1 °F 20% 29.81 in 10.0 mi ESE 6.9 mph - N/A   Clear
9:53 AM 72.0 °F 24.1 °F 17% 29.80 in 10.0 mi SSE 3.5 mph - N/A   Clear
10:53 AM 79.0 °F 23.0 °F 13% 29.77 in 10.0 mi Variable 3.5 mph - N/A   Clear
11:53 AM 84.0 °F 21.9 °F 10% 29.75 in 10.0 mi South 9.2 mph - N/A   Clear
12:53 PM 87.1 °F 14.0 °F 7% 29.75 in 10.0 mi West 18.4 mph 34.5 mph N/A   Clear
1:53 PM 89.1 °F 15.1 °F 6% 29.74 in 10.0 mi SW 10.4 mph 27.6 mph N/A   Clear
2:53 PM 88.0 °F 15.1 °F 7% 29.75 in 10.0 mi WSW 27.6 mph 46.0 mph N/A   Clear
3:53 PM 89.1 °F 16.0 °F 7% 29.73 in 10.0 mi West 21.9 mph 32.2 mph N/A   Clear
4:53 PM 87.1 °F 19.0 °F 8% 29.75 in 10.0 mi SW 20.7 mph 33.4 mph N/A   Clear
5:53 PM 86.0 °F 18.0 °F 8% 29.74 in 10.0 mi WSW 9.2 mph 20.7 mph N/A   Clear
6:14 PM 86.0 °F 19.4 °F 9% 29.98 in 4.0 mi WSW 13.8 mph 25.3 mph N/A   Haze
6:23 PM 84.2 °F 19.4 °F 9% 29.97 in 4.0 mi South 10.4 mph 34.5 mph N/A   Haze
6:53 PM 82.9 °F 21.0 °F 10% 29.78 in 3.0 mi SW 15.0 mph 19.6 mph N/A   Haze
7:53 PM 81.0 °F 17.1 °F 9% 29.79 in 3.0 mi WNW 10.4 mph - N/A   Haze
8:53 PM 75.9 °F 16.0 °F 10% 29.81 in 3.0 mi NW 9.2 mph - N/A   Haze
9:03 PM 75.2 °F 15.8 °F 11% 30.03 in 2.5 mi WNW 5.8 mph - N/A   Haze
9:30 PM 73.4 °F 17.6 °F 12% 30.05 in 3.0 mi SW 6.9 mph - N/A   Haze
9:53 PM 69.1 °F 19.9 °F 15% 29.86 in 3.0 mi Calm Calm - N/A   Haze
10:53 PM 69.1 °F 18.0 °F 14% 29.86 in 3.0 mi WSW 5.8 mph - N/A   Haze
11:53 PM 64.9 °F 23.0 °F 20% 29.88 in 3.0 mi Calm Calm - N/A   Haze